Theta_e
307 307 307 307 307 307 307 308 308 308 308 306 307 309 309 306 301 303 306 303 305 310 308 314 320 322 320 321 328 317 317 318 320 322 323 323 329 329 328 328 325 327 329 329 332
307 307 308 307 308 307 307 307 308 308 308 309 307 305 307 305 305 305 302 305 303 303 311 311 312 323 319 322 329 331 320 318 317 319 321 321 325 329 330 330 326 325 328 329 330
307 308 308 307 307 307 307 307 307 306 306 305 303 304 308 304 305 303 314 313 316 316 307 316 314 314 316 325 328 330 334 326 322 319 322 323 323 321 324 325 325 325 326 326 326
307 307 306 306 306 306 307 307 307 307 307 305 306 307 308 305 296 307 307 307 304 303 317 313 314 314 312 314 321 331 330 331 332 331 333 332 327 327 323 323 323 324 324 325 325
306 306 305 303 303 304 306 305 302 302 307 307 308 307 306 306 306 302 302 301 303 311 317 316 312 311 310 310 313 319 325 327 326 325 325 328 330 329 327 324 324 324 324 325 324
303 302 301 301 301 302 301 300 300 301 303 308 308 307 306 306 303 302 301 301 305 305 306 314 310 309 311 310 313 313 315 316 317 318 322 324 325 325 325 325 325 325 325 323 322
304 304 303 304 305 305 301 300 303 304 305 308 309 308 306 306 305 306 305 305 303 303 304 305 312 311 310 313 312 313 313 314 314 314 315 317 320 322 323 325 325 325 324 323 321
305 304 300 300 305 302 300 302 306 308 308 310 309 308 308 307 308 307 307 306 306 304 304 305 307 307 309 311 313 316 314 316 316 315 316 317 322 324 322 324 325 324 322 322 322
304 303 300 301 304 305 303 305 306 309 309 307 308 308 309 309 310 309 309 306 306 305 306 307 306 306 308 310 312 313 316 315 317 315 316 318 321 321 320 321 321 322 322 322 321
303 303 300 300 302 305 305 307 306 308 309 310 310 309 307 305 305 306 306 307 306 306 306 306 305 305 304 309 316 315 316 318 318 317 316 317 318 319 319 319 319 319 319 320 320
303 300 300 301 302 306 307 307 304 303 305 305 305 306 305 305 306 306 306 306 307 307 306 305 304 307 308 308 309 311 314 316 317 316 317 317 317 318 317 318 319 319 320 320 319
301 300 300 302 304 306 307 305 305 305 304 305 305 306 307 308 307 307 306 306 305 305 306 306 306 306 307 308 309 310 311 312 313 314 315 315 316 315 316 318 319 319 320 319 319
300 300 300 303 305 307 307 307 307 306 304 305 306 308 307 306 306 306 306 306 306 305 305 305 307 307 307 308 309 309 311 312 313 313 314 314 315 314 315 315 316 316 316 317 318
300 300 301 303 306 306 306 307 306 305 302 306 307 308 308 307 308 308 307 306 306 305 304 304 304 305 305 306 308 308 309 312 315 315 315 314 314 314 314 314 315 315 314 316 317
301 301 301 303 305 306 307 307 306 303 306 307 308 307 306 307 308 310 309 307 306 306 304 304 305 304 305 305 306 307 310 311 311 311 315 315 315 315 314 314 314 315 315 316 316
301 302 303 305 305 307 307 307 305 303 302 307 307 307 306 306 308 309 309 310 309 307 305 304 305 305 305 306 306 306 309 310 310 312 314 314 315 315 314 315 315 315 315 316 316
302 303 303 306 306 308 307 303 302 304 306 308 307 307 306 306 307 309 309 311 311 313 310 308 307 306 307 306 307 307 305 308 311 314 315 313 315 315 315 315 315 315 315 315 314
304 306 305 308 309 308 305 301 305 307 308 307 308 307 306 305 307 309 309 312 312 312 313 315 312 310 312 310 308 305 305 307 313 316 314 313 316 315 314 314 315 315 315 314 325
307 308 307 308 309 308 300 302 303 309 308 308 308 307 305 306 307 307 308 312 311 311 313 314 310 310 310 309 309 309 304 305 305 309 310 314 314 315 315 315 315 314 316 323 334
306 307 309 309 308 305 302 306 306 308 306 307 309 308 307 306 307 307 308 310 311 310 309 310 311 310 309 309 308 308 309 306 304 311 314 314 315 316 316 317 317 316 314 326 334
305 305 309 309 308 301 301 304 306 307 307 308 308 307 306 308 308 307 309 309 310 310 308 309 309 310 310 309 306 308 310 309 305 307 313 315 315 314 315 315 314 317 315 333 337
301 306 308 307 303 300 301 306 307 308 308 308 307 307 307 308 308 308 310 310 309 309 310 309 310 313 311 308 308 309 309 310 308 309 310 313 314 313 316 314 320 321 327 335 338
302 301 307 306 301 298 302 306 308 308 309 309 309 307 307 307 309 309 309 309 308 308 310 310 308 310 307 311 311 311 311 311 313 311 312 313 313 313 314 314 326 334 336 338 339
303 304 300 298 300 304 305 307 309 308 309 309 308 307 308 309 307 309 308 308 309 309 312 310 308 308 309 309 310 312 314 314 316 314 314 313 312 312 313 316 318 335 336 340 339
300 302 302 302 303 304 305 306 309 309 309 308 308 308 310 311 309 309 308 309 308 310 311 309 309 311 310 309 310 312 313 313 315 315 317 315 312 312 314 317 319 334 337 339 339
301 301 304 302 303 305 305 309 310 309 309 309 310 309 309 310 310 311 310 310 310 308 311 310 310 312 311 311 312 313 313 313 314 315 315 314 315 315 316 322 335 336 339 340 339
301 302 302 303 304 307 308 308 308 308 308 309 309 309 309 309 308 308 308 308 310 309 311 311 311 310 311 309 312 318 315 314 314 313 313 316 316 317 318 326 336 336 338 338 338
Wind_Speed
16 17 17 18 19 21 22 21 21 22 22 22 22 22 24 27 30 22 11 18 11 10 22 8 4 5 8 3 4 5 2 5 5 6 3 6 7 16 2 8 4 6 3 7 10
18 18 18 19 20 20 21 22 21 20 21 21 22 23 24 27 28 18 34 28 28 22 10 14 11 8 4 5 4 5 5 10 7 6 2 4 3 14 15 19 10 5 8 8 11
19 19 20 20 20 21 20 20 22 23 22 22 22 23 22 24 6 8 8 17 11 15 27 12 11 6 6 5 6 6 12 8 5 8 6 3 10 4 6 12 18 8 7 12 6
20 21 21 22 23 23 23 22 20 20 21 22 21 19 20 9 7 4 5 11 22 23 17 13 6 6 7 11 7 6 8 13 10 9 8 13 7 15 14 19 13 11 13 7 13
21 22 23 24 25 25 25 25 25 25 21 19 17 14 8 3 11 28 27 32 24 10 14 10 13 6 8 6 5 15 13 8 9 11 10 11 19 23 22 14 13 12 14 14 13
22 24 25 26 28 29 27 26 27 26 25 20 14 8 5 6 16 18 19 21 13 9 5 13 7 7 4 6 13 1 2 13 10 12 8 12 20 19 21 18 16 16 12 13 14
24 25 27 28 29 29 28 26 26 29 25 18 11 7 9 19 18 25 29 27 31 21 5 12 23 5 5 2 7 7 12 12 13 4 6 6 24 29 16 17 20 20 18 15 12
25 27 29 31 29 26 24 23 27 23 17 9 4 5 7 24 24 28 26 27 23 20 20 21 17 4 4 4 4 2 4 13 14 15 7 7 36 14 2 11 19 15 11 11 15
27 28 30 32 28 27 25 22 20 13 8 3 5 3 10 15 10 19 7 14 11 15 16 11 5 6 2 4 3 5 7 9 2 7 9 19 39 16 11 13 19 15 15 16 13
27 28 29 31 27 26 20 21 22 9 9 3 2 2 7 14 30 31 40 14 6 6 4 6 4 4 3 5 16 10 13 1 3 4 11 17 29 18 8 9 12 15 17 17 18
26 28 29 27 22 20 17 9 7 5 10 7 15 13 23 28 30 25 18 17 8 5 7 5 5 15 16 11 8 10 4 1 2 5 8 17 22 19 11 16 21 23 21 20 11
28 27 28 24 22 12 11 2 5 8 8 12 14 11 20 17 10 17 4 3 6 4 1 2 17 5 2 3 8 8 9 11 6 11 6 13 13 15 14 16 16 18 18 15 14
28 27 27 23 16 6 14 7 18 15 2 8 7 7 6 3 4 15 3 2 3 8 6 6 4 3 12 6 6 6 7 5 7 11 19 16 21 17 20 15 18 18 12 10 14
28 27 23 23 4 16 10 16 23 7 2 5 8 5 5 7 3 14 6 5 3 7 6 6 7 6 4 6 11 17 5 7 4 4 8 2 18 25 18 23 16 16 9 12 15
30 27 20 12 11 7 16 22 25 2 3 14 6 12 17 5 11 6 12 5 13 10 2 7 2 5 12 10 7 6 11 8 13 11 4 7 5 15 7 13 22 20 17 18 14
31 24 19 3 7 14 20 29 1 5 4 8 10 17 16 6 4 6 6 9 7 13 9 7 7 4 6 7 8 5 3 10 9 3 7 12 10 25 10 12 10 10 10 11 10
32 20 9 6 4 16 22 6 4 4 6 8 10 16 15 11 7 8 8 5 3 5 3 4 14 20 11 6 4 4 5 1 2 4 11 7 14 21 4 5 6 7 11 10 9
32 8 3 9 9 13 10 5 6 2 6 12 12 16 4 13 6 8 6 6 8 1 2 1 5 8 3 7 6 7 8 4 6 5 5 10 11 8 9 13 16 15 16 8 8
20 8 1 2 4 6 5 5 5 3 6 9 14 5 5 8 5 8 6 2 3 0 3 2 4 4 2 2 4 1 4 7 4 5 1 5 7 9 13 20 14 13 7 9 8
11 10 4 2 1 6 5 3 3 4 11 7 2 3 5 8 6 7 4 2 3 1 1 1 3 3 3 2 5 5 3 3 1 4 5 5 6 10 5 8 6 7 11 8 7
5 3 6 5 1 5 3 4 7 9 10 4 6 8 8 5 4 4 3 4 0 3 2 2 2 3 3 4 6 2 2 3 4 5 3 3 6 6 9 8 11 16 9 10 11
7 2 10 2 4 1 0 3 8 7 11 7 4 5 5 3 4 4 3 4 4 3 2 2 2 3 9 5 3 0 4 4 3 6 5 3 8 8 3 7 10 16 7 9 10
4 3 4 2 2 3 5 5 4 7 13 5 5 2 2 4 3 5 5 4 4 4 2 1 1 3 8 3 2 3 3 3 1 2 7 5 8 1 3 9 11 6 4 13 13
3 4 4 4 0 2 4 4 5 9 11 10 7 3 2 5 7 6 7 5 1 4 4 4 3 6 5 5 4 5 5 2 2 3 6 16 15 20 15 18 19 4 5 12 12
3 1 1 4 3 9 3 4 8 10 3 5 4 4 13 6 10 6 5 4 3 8 3 5 5 6 9 13 14 14 16 13 11 9 6 5 21 18 14 19 17 5 9 9 14
2 3 3 7 7 4 3 3 9 11 6 6 6 18 13 11 13 19 17 6 8 2 6 6 4 4 12 12 16 19 19 17 15 15 10 13 26 12 9 10 0 5 11 10 14
4 4 2 5 3 4 3 7 14 12 8 10 15 17 15 16 12 16 16 19 12 6 8 7 4 5 6 9 11 10 18 19 14 6 11 14 11 7 11 8 3 4 6 9 12
Wind_Direction
357 353 349 344 340 337 335 331 330 331 331 331 330 331 330 327 320 316 247 252 264 287 259 250 264 203 202 229 208 139 118 215 240 181 216 315 19 292 143 304 8 309 318 237 222
354 349 344 341 337 334 330 328 327 326 325 325 328 331 332 333 323 288 286 290 273 263 260 221 226 183 182 202 210 167 183 217 209 208 95 329 262 260 288 288 282 278 288 286 270
350 346 342 338 335 331 329 327 326 325 323 323 324 327 332 340 313 250 72 37 6 306 245 269 248 179 199 187 200 201 224 208 238 231 259 236 270 231 283 259 257 263 273 293 215
349 346 342 338 336 333 329 325 319 313 313 315 318 325 332 347 292 286 249 334 332 327 229 229 214 193 197 205 201 253 206 218 247 251 259 261 271 262 225 247 265 269 265 290 287
348 345 342 340 337 333 327 322 320 317 311 309 308 313 337 23 252 281 291 307 322 350 210 225 208 170 192 197 193 240 240 230 243 259 255 267 259 260 263 249 262 266 274 272 256
349 345 342 340 337 333 330 327 324 322 315 301 292 290 274 278 267 293 312 309 314 331 325 217 222 203 235 208 205 156 175 246 244 251 273 266 271 265 261 270 261 256 249 242 253
343 339 335 333 330 328 330 330 330 328 320 298 280 252 249 246 272 283 287 284 280 279 289 285 224 230 176 273 249 272 282 282 251 174 238 348 274 253 254 265 268 273 277 266 239
336 337 338 334 331 333 332 333 341 333 320 308 249 238 259 278 292 287 291 283 273 253 240 262 269 258 186 290 320 213 169 243 250 232 209 167 256 244 237 238 256 258 261 261 271
338 338 339 336 330 330 333 340 348 342 27 25 132 181 266 310 280 316 325 268 283 223 225 239 169 189 145 170 353 236 241 223 290 201 205 202 257 262 255 263 264 267 267 267 272
337 337 339 337 337 339 336 339 348 297 30 352 196 287 265 307 290 289 297 291 268 252 194 192 178 168 162 163 212 221 230 59 169 224 211 230 252 253 250 261 270 269 267 268 271
339 340 339 336 337 337 338 345 9 331 332 251 276 266 278 282 287 290 294 322 260 228 177 192 161 212 212 225 283 297 323 334 301 244 229 233 253 264 260 254 254 257 260 262 262
343 342 338 334 336 335 345 31 313 291 304 280 255 246 254 269 296 288 246 218 347 304 297 150 228 174 143 177 224 255 269 271 286 276 273 287 289 291 272 261 256 258 261 262 266
346 344 340 332 331 334 332 294 336 340 290 297 263 297 330 339 280 283 135 190 272 285 250 203 251 251 236 246 258 240 230 257 258 297 291 297 291 274 269 253 261 260 247 249 248
347 343 341 336 344 328 308 332 332 330 36 282 324 310 315 311 294 311 21 236 237 234 233 234 244 221 228 244 226 254 234 260 273 213 257 183 289 274 261 256 249 251 243 245 251
345 342 336 334 301 306 317 325 331 92 331 329 320 324 319 315 322 324 337 200 231 223 186 243 226 197 226 232 231 264 226 232 225 249 277 242 282 277 200 246 246 253 247 248 244
342 338 333 289 282 305 317 325 6 49 299 328 338 324 339 340 343 339 346 332 256 234 237 230 284 202 219 228 219 254 242 223 232 169 248 229 220 272 238 238 235 232 243 242 248
337 331 300 269 258 313 318 359 42 87 316 336 318 320 314 338 321 347 325 252 83 5 33 241 249 252 240 222 220 168 85 213 140 194 231 244 202 242 290 277 247 262 266 260 276
340 347 244 263 322 312 340 46 61 311 276 308 315 303 314 1 312 350 353 14 36 138 269 246 284 223 198 198 193 187 169 184 184 190 237 235 238 252 232 240 259 264 257 245 232
351 3 340 3 313 318 58 47 200 237 276 323 322 331 330 345 314 350 331 267 208 255 186 344 226 336 154 179 155 229 176 205 3 229 199 245 283 290 270 269 262 258 233 214 195
347 337 322 128 231 46 64 291 252 239 309 298 275 270 312 311 321 336 291 273 322 313 299 277 288 290 339 13 212 177 214 145 96 237 241 259 251 232 303 265 306 251 228 195 153
10 31 360 172 251 49 120 241 283 293 320 305 272 288 298 316 272 274 285 302 119 340 342 21 94 285 329 203 205 158 241 222 184 211 228 290 255 211 229 289 290 291 224 169 150
349 51 349 278 37 95 327 268 284 298 327 298 236 251 253 304 274 270 275 235 146 165 200 215 132 262 240 244 272 62 211 167 180 236 248 247 259 289 304 321 304 296 162 130 135
348 282 356 355 66 312 299 291 263 325 313 310 285 287 179 263 304 264 269 291 242 183 184 143 103 335 323 33 133 208 201 210 205 297 240 226 269 320 108 355 345 21 143 129 130
6 354 325 41 80 135 310 280 300 321 307 338 275 272 297 262 229 266 260 288 360 226 170 120 196 179 207 260 356 299 270 219 216 233 241 241 302 280 311 338 332 128 113 137 135
27 313 218 306 332 311 267 271 320 340 295 299 278 325 315 279 295 242 239 274 273 259 123 141 226 212 239 255 268 265 265 258 231 246 243 309 252 274 320 298 297 169 126 165 141
38 14 339 295 276 281 285 263 314 323 312 286 282 312 302 275 253 277 273 235 262 283 156 176 261 279 278 259 254 265 251 244 242 238 253 267 274 273 276 295 107 142 154 176 149
358 313 244 271 281 286 258 314 309 318 289 263 295 306 297 289 295 283 271 268 238 219 197 188 217 265 268 308 328 260 230 224 221 207 199 239 273 304 305 298 305 104 194 165 178